| time (UTC) | temp C | wind direction | speed KPH | gust KPH | rain 1hr cm | rain 24hr cm | rain mn cm | humidity % | barometer mb |
| 20260904163013 | 15 | 141 | 6.4 | 11.3 | 0.00 | 0.00 | 0.00 | 71 | 994.4 |
| 20260904161513 | 15 | 179 | 8.0 | 12.9 | 0.00 | 0.00 | 0.00 | 71 | 994.4 |
| 20260904160014 | 16 | 176 | 6.4 | 9.7 | 0.00 | 0.00 | 0.00 | 67 | 994.5 |
| 20260904154509 | 16 | 142 | 3.2 | 8.0 | 0.00 | 0.00 | 0.00 | 63 | 994.6 |
| 20260904153016 | 16 | 144 | 3.2 | 11.3 | 0.00 | 0.00 | 0.00 | 58 | 994.7 |
| 20260904151508 | 16 | 167 | 9.7 | 16.1 | 0.00 | 0.00 | 0.00 | 59 | 994.7 |
| 20260904150006 | 17 | 136 | 6.4 | 12.9 | 0.00 | 0.00 | 0.00 | 60 | 994.8 |
| 20260904144506 | 17 | 129 | 3.2 | 11.3 | 0.00 | 0.00 | 0.00 | 57 | 994.9 |
| 20260904143004 | 17 | 113 | 4.8 | 12.9 | 0.00 | 0.00 | 0.00 | 57 | 995.1 |
| 20260904141504 | 17 | 168 | 8.0 | 12.9 | 0.00 | 0.00 | 0.00 | 58 | 995.2 |
| 20260904140100 | 17 | 151 | 6.4 | 12.9 | 0.00 | 0.00 | 0.00 | 57 | 995.4 |
| 20260904134605 | 16 | 173 | 0.0 | 14.5 | 0.00 | 0.00 | 0.00 | 57 | 995.5 |
| 20260904133057 | 17 | 164 | 3.2 | 11.3 | 0.00 | 0.00 | 0.00 | 58 | 995.6 |
| 20260904131556 | 17 | 163 | 1.6 | 9.7 | 0.00 | 0.00 | 0.00 | 56 | 995.7 |
| 20260904130055 | 17 | 108 | 3.2 | 8.0 | 0.00 | 0.00 | 0.00 | 58 | 995.7 |
| 20260904124554 | 17 | 160 | 6.4 | 9.7 | 0.00 | 0.00 | 0.00 | 59 | 995.9 |
| 20260904123055 | 16 | 178 | 6.4 | 14.5 | 0.00 | 0.00 | 0.00 | 61 | 996.1 |
| 20260904121550 | 16 | 155 | 8.0 | 14.5 | 0.00 | 0.00 | 0.00 | 60 | 996.2 |
| 20260904120051 | 16 | 155 | 8.0 | 14.5 | 0.00 | 0.00 | 0.00 | 60 | 996.4 |
| 20260904114546 | 16 | 144 | 8.0 | 12.9 | 0.00 | 0.00 | 0.00 | 65 | 996.4 |
| 20260904113046 | 16 | 147 | 12.9 | 16.1 | 0.00 | 0.00 | 0.00 | 60 | 996.6 |
| 20260904111546 | 17 | 167 | 8.0 | 12.9 | 0.00 | 0.00 | 0.00 | 59 | 996.8 |
| 20260904110043 | 17 | 169 | 9.7 | 14.5 | 0.00 | 0.00 | 0.00 | 56 | 996.8 |
| 20260904104550 | 17 | 148 | 4.8 | 12.9 | 0.00 | 0.00 | 0.00 | 55 | 997.0 |
| 20260904103039 | 17 | 140 | 8.0 | 12.9 | 0.00 | 0.00 | 0.00 | 55 | 997.2 |
| 20260904101538 | 17 | 151 | 4.8 | 12.9 | 0.00 | 0.00 | 0.00 | 59 | 997.2 |
| 20260904100039 | 17 | 119 | 6.4 | 11.3 | 0.00 | 0.00 | 0.00 | 56 | 997.2 |
| 20260904094535 | 17 | 190 | 1.6 | 6.4 | 0.00 | 0.00 | 0.00 | 53 | 997.4 |
| 20260904093031 | 16 | 159 | 0.0 | 4.8 | 0.00 | 0.00 | 0.00 | 59 | 997.4 |
| 20260904091531 | 16 | 152 | 4.8 | 9.7 | 0.00 | 0.00 | 0.00 | 59 | 997.5 |
| 20260904090028 | 16 | 136 | 3.2 | 9.7 | 0.00 | 0.00 | 0.00 | 60 | 997.6 |
| 20260904084534 | 16 | 67 | 0.0 | 3.2 | 0.00 | 0.00 | 0.00 | 62 | 997.6 |
| 20260904083029 | 17 | 140 | 0.0 | 1.6 | 0.00 | 0.00 | 0.00 | 61 | 997.7 |
| 20260904081522 | 16 | 163 | 0.0 | 3.2 | 0.00 | 0.00 | 0.00 | 66 | 997.8 |
| 20260904080020 | 15 | 163 | 0.0 | 0.0 | 0.00 | 0.00 | 0.00 | 68 | 997.8 |
| 20260904074514 | 13 | 254 | 0.0 | 1.6 | 0.00 | 0.00 | 0.00 | 77 | 998.0 |
| 20260904073011 | 13 | 325 | 0.0 | 1.6 | 0.00 | 0.00 | 0.00 | 81 | 998.0 |
| 20260904071504 | 12 | 336 | 3.2 | 6.4 | 0.00 | 0.00 | 0.00 | 84 | 998.0 |
| 20260904070000 | 11 | 330 | 3.2 | 6.4 | 0.00 | 0.00 | 0.00 | 89 | 998.2 |
| 20260904064556 | 11 | 157 | 0.0 | 0.0 | 0.00 | 0.00 | 0.00 | 92 | 998.2 |
| 20260904063052 | 10 | 157 | 0.0 | 3.2 | 0.00 | 0.00 | 0.00 | 93 | 998.3 |
| 20260904061548 | 9 | 157 | 0.0 | 0.0 | 0.00 | 0.00 | 0.00 | 93 | 998.4 |
| 20260904060050 | 8 | 157 | 0.0 | 0.0 | 0.00 | 0.00 | 0.00 | 93 | 998.3 |
| 20260904054542 | 7 | 157 | 0.0 | 0.0 | 0.00 | 0.00 | 0.00 | 93 | 998.2 |
| 20260904053042 | 6 | 157 | 0.0 | 0.0 | 0.00 | 0.00 | 0.00 | 93 | 998.3 |
| 20260904051538 | 5 | 157 | 0.0 | 0.0 | 0.00 | 0.00 | 0.00 | 93 | 998.4 |
| 20260904050040 | 4 | 157 | 0.0 | 0.0 | 0.00 | 0.00 | 0.00 | 93 | 998.5 |
| 20260904044535 | 4 | 157 | 0.0 | 0.0 | 0.00 | 0.00 | 0.00 | 93 | 998.6 |
| 20260904043033 | 3 | 157 | 0.0 | 0.0 | 0.00 | 0.00 | 0.00 | 93 | 998.6 |
| 20260904041532 | 3 | 157 | 0.0 | 0.0 | 0.00 | 0.00 | 0.00 | 93 | 998.8 |
| 20260904040037 | 3 | 157 | 0.0 | 0.0 | 0.00 | 0.00 | 0.00 | 93 | 998.7 |
| 20260904034534 | 4 | 157 | 0.0 | 0.0 | 0.00 | 0.00 | 0.00 | 93 | 998.7 |
| 20260904033029 | 4 | 157 | 0.0 | 3.2 | 0.00 | 0.00 | 0.00 | 93 | 998.8 |
| 20260904031526 | 4 | 157 | 0.0 | 0.0 | 0.00 | 0.00 | 0.00 | 93 | 998.7 |
| 20260904030025 | 3 | 157 | 0.0 | 0.0 | 0.00 | 0.00 | 0.00 | 93 | 998.8 |
| 20260904024524 | 4 | 157 | 0.0 | 0.0 | 0.00 | 0.00 | 0.00 | 93 | 998.9 |
| 20260904023021 | 4 | 157 | 0.0 | 0.0 | 0.00 | 0.00 | 0.00 | 93 | 999.0 |
| 20260904021520 | 3 | 157 | 0.0 | 0.0 | 0.00 | 0.00 | 0.00 | 93 | 999.0 |
| 20260904020018 | 4 | 157 | 0.0 | 0.0 | 0.00 | 0.00 | 0.00 | 93 | 999.2 |
| 20260904014514 | 5 | 157 | 0.0 | 0.0 | 0.00 | 0.00 | 0.00 | 93 | 999.3 |
| 20260904013011 | 5 | 157 | 0.0 | 0.0 | 0.00 | 0.00 | 0.00 | 93 | 999.5 |
| 20260904011521 | 5 | 157 | 0.0 | 0.0 | 0.00 | 0.00 | 0.00 | 93 | 999.7 |
| 20260904010010 | 5 | 157 | 0.0 | 0.0 | 0.00 | 0.00 | 0.00 | 93 | 999.8 |
| 20260904004503 | 5 | 157 | 0.0 | 0.0 | 0.00 | 0.00 | 0.00 | 93 | 1000.0 |
| 20260904003002 | 5 | 157 | 0.0 | 0.0 | 0.00 | 0.00 | 0.00 | 92 | 1000.0 |
| 20260904001606 | 5 | 157 | 0.0 | 0.0 | 0.00 | 0.00 | 0.00 | 92 | 1000.1 |
| 20260904000059 | 5 | 157 | 0.0 | 0.0 | 0.00 | 0.00 | 0.00 | 92 | 1000.2 |
| 20260903234557 | 6 | 157 | 0.0 | 0.0 | 0.00 | 0.00 | 0.00 | 92 | 1000.2 |
| 20260903233054 | 6 | 157 | 0.0 | 0.0 | 0.00 | 0.00 | 0.00 | 92 | 1000.3 |
| 20260903231551 | 6 | 157 | 0.0 | 0.0 | 0.00 | 0.00 | 0.00 | 92 | 1000.3 |
| 20260903230048 | 6 | 157 | 0.0 | 0.0 | 0.00 | 0.00 | 0.00 | 91 | 1000.5 |
| 20260903224545 | 7 | 157 | 0.0 | 0.0 | 0.00 | 0.00 | 0.00 | 91 | 1000.7 |
| 20260903223050 | 7 | 157 | 0.0 | 1.6 | 0.00 | 0.00 | 0.00 | 91 | 1000.9 |
| 20260903221539 | 7 | 157 | 0.0 | 0.0 | 0.00 | 0.00 | 0.00 | 91 | 1001.0 |
| 20260903220054 | 7 | 157 | 0.0 | 0.0 | 0.00 | 0.00 | 0.00 | 90 | 1001.1 |
| 20260903214535 | 7 | 157 | 0.0 | 0.0 | 0.00 | 0.00 | 0.00 | 90 | 1001.2 |
| 20260903213036 | 7 | 157 | 0.0 | 1.6 | 0.00 | 0.00 | 0.00 | 89 | 1001.2 |
| 20260903211531 | 7 | 157 | 0.0 | 0.0 | 0.00 | 0.00 | 0.00 | 88 | 1001.3 |
| 20260903210030 | 8 | 157 | 0.0 | 0.0 | 0.00 | 0.00 | 0.00 | 88 | 1001.4 |
| 20260903204527 | 8 | 157 | 0.0 | 0.0 | 0.00 | 0.00 | 0.00 | 88 | 1001.4 |
| 20260903203025 | 8 | 157 | 0.0 | 4.8 | 0.00 | 0.00 | 0.00 | 87 | 1001.6 |
| 20260903201524 | 8 | 184 | 0.0 | 0.0 | 0.00 | 0.00 | 0.00 | 85 | 1001.7 |
| 20260903200020 | 9 | 184 | 0.0 | 4.8 | 0.00 | 0.00 | 0.00 | 84 | 1001.8 |
| 20260903194517 | 10 | 197 | 0.0 | 0.0 | 0.00 | 0.00 | 0.00 | 84 | 1001.9 |
| 20260903193015 | 10 | 197 | 0.0 | 0.0 | 0.00 | 0.00 | 0.00 | 83 | 1001.9 |
| 20260903191512 | 10 | 197 | 0.0 | 0.0 | 0.00 | 0.00 | 0.00 | 80 | 1002.0 |
| 20260903190009 | 11 | 197 | 0.0 | 0.0 | 0.00 | 0.00 | 0.00 | 77 | 1002.2 |
| 20260903184507 | 11 | 197 | 0.0 | 0.0 | 0.00 | 0.00 | 0.00 | 75 | 1002.2 |
| 20260903183006 | 12 | 197 | 0.0 | 0.0 | 0.00 | 0.00 | 0.00 | 72 | 1002.2 |
| 20260903181509 | 13 | 197 | 0.0 | 0.0 | 0.00 | 0.00 | 0.00 | 68 | 1002.3 |
| 20260903180007 | 15 | 197 | 0.0 | 3.2 | 0.00 | 0.00 | 0.00 | 62 | 1002.3 |
| 20260903174504 | 15 | 197 | 3.2 | 6.4 | 0.00 | 0.00 | 0.00 | 59 | 1002.2 |
| 20260903173017 | 16 | 200 | 3.2 | 6.4 | 0.00 | 0.00 | 0.00 | 57 | 1002.2 |
| 20260903171504 | 16 | 236 | 3.2 | 12.9 | 0.00 | 0.00 | 0.00 | 55 | 1002.3 |
| 20260903170004 | 17 | 200 | 6.4 | 12.9 | 0.00 | 0.00 | 0.00 | 55 | 1002.3 |
| 20260903164503 | 17 | 233 | 9.7 | 17.7 | 0.00 | 0.00 | 0.00 | 53 | 1002.2 |